Rechercher aéroport 
image banner adimage banner ad
image banner ad

SVVX - Melia Caribe

Situé à Caraballeda, Venezuela

ICAO - SVVX, IATA -

Données fournies par Airmate  

Information générale

Coordonnées: N10°37'10" W66°58'10"
Élévation : 621 feet MSL.
 
Voir autres Aéroports à Bolívar

Données opérationnelles

Accessible au public
Heure actuelle UTC:
Heure actuelle locale:
METAR: SVMI 262102Z AUTO 07013KT NCD ///// Q1010
TAF: TAF SVMI 261600Z 2618/2718 05005KT 9999 BKN016 TX34/2618Z TN24/2518Z TEMPO 2618/2622 09007KT 9000 DZ BKN020
Voir NOTAMs / SUP AIP / TFR affectant cet aéroport [VIEW]
Fréquences de communication: [VIEW]

Pistes:

Coordonnées de l'aéroport

Adresse: Caraballeda Venezuela

Vue satellite de SVVX